SBONWEB Weather Reports


Display with metric or nautical units.
time (UTC)temp
F
wind
direction
speed
MPH
gust
MPH
rain 1hr
in
rain 24hr
in
rain mn
in
humidity
%
barometer
mb
20260505003818 57 182 2.0 7.0 0.00 0.00 0.00 74 1014.8
20260505002703 57 172 1.0 6.0 0.00 0.00 0.00 75 1014.9
20260505001803 57 181 1.0 4.0 0.00 0.00 0.00 76 1015.0
20260505000903 57 133 0.0 2.0 0.00 0.00 0.00 75 1015.3
20260505000218 57 0 0.0 0.0 0.00 0.00 0.00 75 1015.1
20260504235403 57 133 1.0 1.0 0.00 0.00 0.00 74 1015.3
20260504234503 57 130 2.0 3.0 0.00 0.00 0.00 74 1015.4
20260504233603 57 128 1.0 3.0 0.00 0.00 0.00 74 1015.6
20260504232703 58 166 0.0 3.0 0.00 0.00 0.00 74 1015.6
20260504231803 58 185 0.0 2.0 0.00 0.00 0.00 74 1015.6
20260504231118 58 0 0.0 0.0 0.00 0.00 0.00 73 1015.7
20260504230003 58 189 1.0 1.0 0.00 0.00 0.00 73 1015.7
20260504225403 58 186 1.0 3.0 0.00 0.00 0.00 73 1015.8
20260504224503 58 186 1.0 4.0 0.00 0.00 0.00 73 1016.0
20260504223603 58 197 2.0 3.0 0.00 0.00 0.00 73 1016.0
20260504222919 57 195 1.0 3.0 0.00 0.00 0.00 73 1016.0
20260504221803 58 185 0.0 2.0 0.00 0.00 0.00 73 1016.2
20260504220903 58 184 0.0 1.0 0.00 0.00 0.00 72 1016.1
20260504220217 58 184 0.0 1.0 0.00 0.00 0.00 71 1016.2
20260504215403 58 184 0.0 1.0 0.00 0.00 0.00 71 1016.2
20260504214717 58 182 0.0 3.0 0.00 0.00 0.00 71 1016.4
20260504213603 58 185 1.0 2.0 0.00 0.00 0.00 71 1016.5
20260504212703 58 184 0.0 2.0 0.00 0.00 0.00 71 1016.5
20260504212018 58 184 0.0 1.0 0.00 0.00 0.00 70 1016.6
20260504210903 59 184 1.0 2.0 0.00 0.00 0.00 70 1016.7
20260504210218 59 179 1.0 2.0 0.00 0.00 0.00 69 1016.7
20260504205618 59 181 1.0 3.0 0.00 0.00 0.00 69 1016.7
20260504204503 59 185 1.0 4.0 0.00 0.00 0.00 69 1016.7
20260504203816 59 177 1.0 4.0 0.00 0.00 0.00 69 1016.8
20260504202703 58 161 0.0 2.0 0.00 0.00 0.00 70 1016.8
20260504201803 58 163 0.0 5.0 0.00 0.00 0.00 70 1016.8
20260504200903 58 138 0.0 2.0 0.00 0.00 0.00 72 1016.7
20260504200003 58 0 0.0 0.0 0.00 0.00 0.00 72 1016.6
20260504195403 58 0 0.0 0.0 0.00 0.00 0.00 72 1016.5
20260504194503 58 0 0.0 0.0 0.00 0.00 0.00 72 1016.5
20260504193603 59 0 0.0 0.0 0.00 0.00 0.00 72 1016.4
20260504192703 59 0 0.0 0.0 0.00 0.00 0.00 70 1016.2
20260504192017 59 0 0.0 0.0 0.00 0.00 0.00 70 1016.3
20260504190908 60 180 1.0 2.0 0.00 0.00 0.00 67 1016.1
20260504190003 61 180 1.0 2.0 0.00 0.00 0.00 66 1016.2
20260504185403 61 180 1.0 2.0 0.00 0.00 0.00 65 1016.1
20260504184503 62 180 0.0 1.0 0.00 0.00 0.00 65 1016.1
20260504183603 63 180 0.0 1.0 0.00 0.00 0.00 63 1016.0
20260504182917 63 180 0.0 1.0 0.00 0.00 0.00 62 1016.0
20260504181803 64 179 0.0 2.0 0.00 0.00 0.00 62 1016.0
20260504180903 64 179 0.0 1.0 0.00 0.00 0.00 61 1016.0
20260504180003 64 0 0.0 0.0 0.00 0.00 0.00 61 1016.1
20260504175403 65 0 0.0 0.0 0.00 0.00 0.00 62 1016.0
20260504174503 65 179 0.0 1.0 0.00 0.00 0.00 59 1016.0
20260504173604 66 179 1.0 2.0 0.00 0.00 0.00 56 1016.0
20260504172703 66 170 1.0 3.0 0.00 0.00 0.00 51 1016.0
20260504171803 66 176 1.0 3.0 0.00 0.00 0.00 49 1016.0
20260504171117 66 170 1.0 3.0 0.00 0.00 0.00 50 1016.0
20260504170217 66 148 2.0 4.0 0.00 0.00 0.00 50 1016.0
20260504150903 68 151 3.0 7.0 0.00 0.00 0.00 47 1016.6
20260504140903 68 176 4.0 8.0 0.00 0.00 0.00 49 1017.0
20260504130217 67 124 3.0 7.0 0.00 0.00 0.00 46 1017.7
20260504100218 65 172 2.0 6.0 0.00 0.00 0.00 48 1018.6
20260504081803 63 158 2.0 4.0 0.00 0.00 0.00 47 1018.4
20260504080903 63 131 1.0 4.0 0.00 0.00 0.00 47 1018.4
20260504080217 63 100 1.0 2.0 0.00 0.00 0.00 46 1018.4
20260504050004 53 360 1.0 2.0 0.00 0.00 0.00 71 1017.3
20260504045403 53 360 1.0 2.0 0.00 0.00 0.00 70 1017.2
20260504044504 52 359 1.0 3.0 0.00 0.00 0.00 71 1017.2
20260504043604 52 360 1.0 2.0 0.00 0.00 0.00 71 1017.1
20260504042703 52 360 1.0 3.0 0.00 0.00 0.00 71 1016.9
20260504041804 51 360 0.0 3.0 0.00 0.00 0.00 71 1017.1
20260504040903 51 0 0.0 0.0 0.00 0.00 0.00 72 1017.1
20260504040004 51 0 0.0 0.0 0.00 0.00 0.00 71 1017.1
20260504035403 51 0 0.0 0.0 0.00 0.00 0.00 70 1017.0
20260504034503 52 0 0.0 0.0 0.00 0.00 0.00 70 1017.1
20260504033603 52 0 0.0 0.0 0.00 0.00 0.00 68 1017.1
20260504032703 53 0 0.0 0.0 0.00 0.00 0.00 68 1016.9
20260504032017 52 0 0.0 0.0 0.00 0.00 0.00 68 1016.9
20260504030904 52 0 0.0 0.0 0.00 0.00 0.00 68 1017.1
20260504030003 52 0 0.0 0.0 0.00 0.00 0.00 69 1017.0
20260504025403 52 0 0.0 0.0 0.00 0.00 0.00 68 1017.1
20260504024504 52 0 0.0 0.0 0.00 0.00 0.00 67 1017.2
20260504023603 52 0 0.0 0.0 0.00 0.00 0.00 67 1017.2
20260504022703 52 0 0.0 0.0 0.00 0.00 0.00 68 1017.2
20260504021803 52 0 0.0 0.0 0.00 0.00 0.00 67 1017.2
20260504020903 53 0 0.0 0.0 0.00 0.00 0.00 68 1017.1
20260504020003 53 0 0.0 0.0 0.00 0.00 0.00 67 1017.1
20260504015403 54 0 0.0 0.0 0.00 0.00 0.00 67 1017.2
20260504014503 54 0 0.0 0.0 0.00 0.00 0.00 67 1017.2
20260504013603 55 0 0.0 0.0 0.00 0.00 0.00 66 1017.3
20260504012703 55 0 0.0 0.0 0.00 0.00 0.00 59 1017.2
20260504011803 56 0 0.0 0.0 0.00 0.00 0.00 61 1017.2
20260504010903 56 0 0.0 0.0 0.00 0.00 0.00 63 1017.2
20260504010003 56 0 0.0 0.0 0.00 0.00 0.00 63 1017.3
20260504005403 57 0 0.0 0.0 0.00 0.00 0.00 64 1017.2
20260504004503 57 0 0.0 0.0 0.00 0.00 0.00 64 1017.3